Location: Krakow
(50.0830°N, 19.9170°E)
Time: 11:57:03
(UTC+02:00)

Altair - Pass Details

Date: 06 December 2023
Orbit: 1501 x 1682 km, 47.2° (Epoch: 10 September)

Event Time Altitude Azimuth Distance (km) Brightness Sun altitude
Rises 07:43:01 0° 225° (SW) 4,836 10.1 1.7°
Reaches altitude 10° 07:46:18 10° 220° (SW) 3,828 9.6 2.1°
Maximum altitude 07:55:26 49° 150° (SSE) 1,955 8.8 3.2°
Drops below altitude 10° 08:04:16 10° 79° (E) 3,706 10.1 4.3°
Sets 08:07:23 0° 75° (ENE) 4,672 10.5 4.6°
